This is the latest recevied weather packets stored in our database for station/object N9WHM. If no packets are shown the sender has not sent any weather packets the latest 10 day(s).
| Time | Temp. | Humidity | Pressure | Rain* | Wind** | Luminosity | Snow |
|---|---|---|---|---|---|---|---|
| 1777565421 | 9.44° C | 72% | 1019.9 hPa | 0 mm | - | 632 W/m² | - |
| 1777565117 | 8.89° C | 71% | 1020.1 hPa | 0 mm | - | 303 W/m² | - |
| 1777564813 | 9.44° C | 71% | 1020.1 hPa | 0 mm | - | 439 W/m² | - |
| 1777564508 | 8.89° C | 71% | 1020.3 hPa | 0 mm | - | 656 W/m² | - |
| 1777564203 | 8.89° C | 73% | 1019.6 hPa | 0 mm | - | 535 W/m² | - |
| 1777563900 | 8.33° C | 72% | 1020 hPa | 0 mm | - | 501 W/m² | - |
| 1777563596 | 7.78° C | 73% | 1019.9 hPa | 0 mm | - | 498 W/m² | - |
| 1777563296 | 8.33° C | 73% | 1019.9 hPa | 0 mm | - | 247 W/m² | - |
| 1777562992 | 7.78° C | 74% | 1019.8 hPa | 0 mm | - | 423 W/m² | - |
| 1777562688 | 8.33° C | 72% | 1019.7 hPa | 0 mm | - | 238 W/m² | - |
| 1777562383 | 7.78° C | 72% | 1019.7 hPa | 0 mm | - | 230 W/m² | - |
| 1777562079 | 8.33° C | 73% | 1019.8 hPa | 0 mm | - | 286 W/m² | - |
| 1777561776 | 7.78° C | 72% | 1019.7 hPa | 0 mm | - | 249 W/m² | - |
| 1777561472 | 7.78° C | 74% | 1019.6 hPa | 0 mm | - | 283 W/m² | - |
| 1777561167 | 7.78° C | 74% | 1019.7 hPa | 0 mm | - | 264 W/m² | - |
| 1777560862 | 7.22° C | 73% | 1019.6 hPa | 0 mm | - | 217 W/m² | - |
| 1777560560 | 7.78° C | 72% | 1019.4 hPa | 0 mm | - | 262 W/m² | - |
| 1777560258 | 7.78° C | 74% | 1019.4 hPa | 0 mm | - | 217 W/m² | - |
| 1777559955 | 7.78° C | 74% | 1019.3 hPa | 0 mm | - | 202 W/m² | - |
| 1777559650 | 7.78° C | 73% | 1019.5 hPa | 0 mm | - | 288 W/m² | - |
| 1777559348 | 7.78° C | 72% | 1019.5 hPa | 0 mm | - | 299 W/m² | - |
| 1777559044 | 7.22° C | 72% | 1019.2 hPa | 0 mm | - | 201 W/m² | - |
| 1777558739 | 7.22° C | 73% | 1019.1 hPa | 0 mm | - | 180 W/m² | - |
| 1777558435 | 6.67° C | 73% | 1018.9 hPa | 0 mm | - | 134 W/m² | - |
| 1777558131 | 6.67° C | 75% | 1018.9 hPa | 0 mm | - | 108 W/m² | - |
* Rain latest hour (hover to see other rain measurements)
** Current wind speed in m/s (hover to see current wind gust speed)